[[{"header":{"parameterUnit":"m.s-1","parameterCategory":1,"la1":30.2991,"la2":30.254,"lo1":-89.0895,"lo2":-89.0444,"dy":0.0017,"dx":0.0017,"nx":28,"ny":28,"refTime":"2025-12-04T03:00:00:Z","depth":0,"parameterNumber":2,"parameterNumberName":"U-component_of_WINDS"},"data":[0,0,0,0,0,0,0,0,0,0,0,0,0,0,0,0,0,0,0,0,0,0,0,0,0,0,0,0,0,0,0,0,0,0,0,0,0,0,0,0,0,0,0,0,0,0,0,0,0,0,0,0,0,0,0,0,0,0,-5.6421,-5.6423,0,-5.663,-5.6633,-5.6635,-5.6537,-5.6532,-5.6526,-5.6521,-5.6743,-5.6754,-5.6764,0,0,0,0,0,0,0,0,0,0,0,0,0,-5.5945,-5.5954,-5.6421,-5.6424,-5.6426,-5.663,-5.6633,-5.6636,-5.6538,-5.6531,-5.6525,-5.6519,-5.674,-5.6752,-5.6765,0,0,0,0,0,0,0,0,0,0,0,0,0,-5.6153,-5.5957,-5.6421,-5.6402,-5.6402,-5.6629,-5.6633,-5.6636,-5.6539,-5.6531,-5.6523,-5.6516,-5.6735,-5.6751,-5.6767,-5.7027,0,0,-5.6817,-5.6824,0,0,0,0,0,0,0,0,-5.6141,-5.617,-5.6402,-5.6404,-5.6404,-5.6549,-5.6546,-5.6768,-5.6541,-5.6488,-5.6521,-5.6512,-5.6686,-5.6705,-5.6762,-5.7038,-5.7047,-5.6818,-5.6828,-5.6835,-5.684,0,0,0,0,0,0,0,-5.6127,-5.6161,-5.6504,-5.6405,-5.6407,-5.6385,-5.6406,-5.6587,-5.6629,-5.6492,-5.6485,-5.6511,-5.6685,-5.6747,-5.6767,-5.705,-5.6818,-5.6832,-5.6842,-5.6849,-5.7551,-5.756,0,0,0,0,0,0,-5.6112,-5.6149,-5.6497,-5.651,-5.625,-5.64,-5.6424,-5.6511,-5.6627,-5.6636,-5.6517,-5.6505,-5.6723,-5.6748,-5.6774,-5.7088,-5.6835,-5.685,-5.686,-5.7543,-5.7553,-5.7563,0,0,0,0,0,0,-5.6102,-5.6144,-5.6489,-5.6328,-5.637,-5.6417,-5.6516,-5.6519,-5.6581,-5.6646,-5.6653,-5.6573,-5.6718,-5.6751,-5.6965,-5.7094,-5.6858,-5.6873,-5.7532,-5.7546,-5.7558,-5.7716,0,0,0,0,0,0,-5.6089,-5.6141,-5.6238,-5.6331,-5.6379,-5.6674,-5.6524,-5.6529,-5.6609,-5.6595,-5.67,-5.671,-5.6714,-5.6941,-5.6981,-5.7112,-5.6885,-5.7521,-5.7538,-5.7554,-5.77,-5.7733,-5.7762,0,0,0,0,0,-5.6072,-5.6276,-5.6244,-5.6286,-5.6502,-5.6682,-5.671,-5.6708,-5.6619,-5.6719,-5.6761,-5.6706,-5.7073,-5.6964,-5.7008,-5.7146,-5.7513,-5.7533,-5.7553,-5.7686,-5.7727,-5.7761,0,0,0,0,0,0,-5.6199,-5.6287,-5.6253,-5.6492,-5.658,-5.6665,-5.679,-5.6751,-5.6868,-5.6851,-5.6846,-5.6871,-5.7093,-5.714,-5.7017,-5.7405,-5.728,-5.7309,-5.7366,-5.7405,-5.7436,-5.7421,-5.6899,0,0,0,0,0,-5.6255,-5.6391,-5.6462,-5.6666,-5.6712,-5.6744,-5.6822,-5.6813,-5.6905,-5.6943,-5.7,-5.7093,-5.7229,-5.7319,-5.7448,-5.7705,-5.7728,-5.7822,-5.7853,-5.7879,-5.7905,-5.8047,-5.809,-5.7629,-5.7629,-5.7628,0,0,-5.6372,-5.6437,-5.6524,-5.6694,-5.676,-5.6905,-5.6776,-5.6933,-5.7041,-5.6967,-5.7172,-5.7218,-5.7322,-5.7559,-5.7666,-5.7605,-5.8038,-5.7904,-5.7924,-5.7937,-5.8072,-5.8116,-5.8155,-5.7642,-5.764,-5.7638,0,0,-5.6659,-5.6721,-5.6899,-5.6968,-5.707,-5.709,-5.7133,-5.7224,-5.7251,-5.7456,-5.7404,-5.7533,-5.7767,-5.7844,-5.7914,-5.823,-5.8186,-5.8273,-5.8436,-5.8575,-5.8611,-5.8643,-5.8759,-5.88,-5.8298,-5.8299,-5.8299,0,-5.6793,-5.7005,-5.6996,-5.7158,-5.7235,-5.7172,-5.7354,-5.7422,-5.7563,-5.7619,-5.7548,-5.7841,-5.7907,-5.8162,-5.8239,-5.8297,-5.8348,-5.8262,-5.8606,-5.8638,-5.8668,-5.8778,-5.8822,-5.8309,-5.8308,-5.8307,-5.8306,0,-5.7165,-5.7314,-5.7445,-5.758,-5.7672,-5.7843,-5.7862,-5.7957,-5.794,-5.7969,-5.818,-5.8256,-5.84,-5.8459,-5.8445,-5.8713,-5.8673,-5.8604,-5.8479,-5.8723,-5.8826,-5.8868,-5.8323,-5.832,-5.8317,-5.8314,0,0,-5.754,-5.7666,-5.7715,-5.7776,-5.7885,-5.8001,-5.817,-5.8308,-5.8391,-5.849,-5.8633,-5.8833,-5.877,-5.885,-5.8844,-5.8965,-5.9214,-5.8882,-5.8884,-5.8943,-5.9517,-5.9569,-5.9618,-5.9184,-5.9192,-5.9198,-5.9509,0,-5.7836,-5.813,-5.8127,-5.84,-5.8539,-5.8481,-5.8629,-5.8713,-5.8744,-5.8868,-5.8903,-5.9045,-5.8951,-5.8998,-5.9115,-5.9159,-5.9329,-5.9136,-5.9321,-5.9328,-5.9299,-5.9672,-5.9728,-6.0017,-5.9549,-5.9556,-5.9561,0,-5.8222,-5.8331,-5.8618,-5.8707,-5.8765,-5.8897,-5.9025,-5.9143,-5.9238,-5.9252,-5.9341,-5.9316,-5.9491,-5.9359,-5.9602,-5.947,-5.9545,-5.9578,-5.959,-5.9609,-5.9461,-5.9704,-6.0109,-6.0154,-5.9624,-5.9619,-5.9614,0,-5.8469,-5.8688,-5.8888,-5.8942,-5.905,-5.9145,-5.9195,-5.9282,-5.9366,-5.9478,-5.9533,-5.9664,-5.9738,-5.9841,-5.9854,-5.9756,-6.01,-5.9968,-6.0119,-6.0119,-6.0196,-6.0192,-6.0622,-6.0241,-6.024,-6.0239,-6.0239,0,-5.8802,-5.898,-5.9001,-5.9125,-5.9323,-5.9319,-5.9517,-5.9558,-5.9636,-5.9769,-5.9727,-5.9853,-5.9861,-5.9992,-6.0003,-6.0204,-6.0236,-6.0255,-6.0257,-6.0261,-6.0259,-6.0312,-6.0293,-6.0251,-6.0248,-6.0246,-6.0244,0,-5.9113,-5.9133,-5.9348,-5.9432,-5.9458,-5.9601,-5.9674,-5.9794,-5.982,-5.9988,-6.0028,-6.0071,-6.0222,-6.0244,-6.0422,-6.043,-6.0671,-6.0651,-6.0639,-6.0637,-6.0788,-6.0775,-6.127,-6.1336,-6.0909,-6.0913,-6.0917,0,-5.9324,-5.946,-5.9558,-5.9643,-5.9697,-5.9835,-5.9919,-5.9921,-6.0011,-6.013,-6.0236,-6.0382,-6.0499,-6.0744,-6.0793,-6.0929,-6.0913,-6.1077,-6.0934,-6.0934,-6.0919,-6.0912,-6.0926,-6.1106,-6.1111,-6.1114,-6.1118,0,-5.97,-5.9703,-5.9825,-5.9953,-6.0055,-6.0156,-6.0251,-6.0323,-6.0337,-6.0441,-6.0594,-6.0685,-6.0865,-6.1013,-6.1148,-6.1202,-6.1165,-6.1162,-6.1205,-6.1211,-6.12,-6.1211,-6.0717,-6.1151,-6.1148,-6.1145,-6.1144,-6.1142,-5.9969,-6.0087,-6.0175,-6.0314,-6.0385,-6.0475,-6.0591,-6.0632,-6.0758,-6.0904,-6.0897,-6.1066,-6.116,-6.1336,-6.14,-6.1534,-6.1481,-6.1542,-6.1558,-6.1574,-6.159,-6.1176,-6.1559,-6.1558,-6.1557,-6.1556,-6.1555,0,-6.0344,-6.0397,-6.0524,-6.0658,-6.0768,-6.0719,-6.0822,-6.0918,-6.1066,-6.1155,-6.127,-6.1448,-6.159,-6.165,-6.179,-6.1886,-6.1873,-6.1924,-6.1918,-6.1932,-6.1628,-6.1578,-6.1932,-6.1932,-6.1932,-6.1932,-6.1932,-6.1932,-6.0552,-6.075,-6.0764,-6.0999,-6.1051,-6.1214,-6.1278,-6.1362,-6.1432,-6.1631,-6.1748,-6.1785,-6.1864,-6.2009,-6.2139,-6.2153,-6.2208,-6.2268,-6.2275,-6.1991,-6.1953,-6.1916,-6.187,-6.2279,-6.2279,-6.2567,-6.2569,-6.2571]},{"header":{"parameterUnit":"m.s-1","parameterCategory":1,"la1":30.2991,"la2":30.254,"lo1":-89.0895,"lo2":-89.0444,"dy":0.0017,"dx":0.0017,"nx":28,"ny":28,"refTime":"2025-12-04T03:00:00:Z","depth":0,"parameterNumber":3,"parameterNumberName":"V-component_of_WINDS"},"data":[0,0,0,0,0,0,0,0,0,0,0,0,0,0,0,0,0,0,0,0,0,0,0,0,0,0,0,0,0,0,0,0,0,0,0,0,0,0,0,0,0,0,0,0,0,0,0,0,0,0,0,0,0,0,0,0,0,0,-3.4029,-3.403,0,-3.4061,-3.4061,-3.4062,-3.3995,-3.3992,-3.399,-3.3988,-3.4019,-3.4022,-3.4025,0,0,0,0,0,0,0,0,0,0,0,0,0,-3.3909,-3.3912,-3.4029,-3.403,-3.403,-3.4061,-3.4061,-3.4062,-3.3995,-3.3992,-3.399,-3.3987,-3.4018,-3.4022,-3.4025,0,0,0,0,0,0,0,0,0,0,0,0,0,-3.3953,-3.3913,-3.4029,-3.4001,-3.3998,-3.4061,-3.4061,-3.4062,-3.3996,-3.3992,-3.3989,-3.3986,-3.4017,-3.4021,-3.4026,-3.4117,0,0,-3.4039,-3.4041,0,0,0,0,0,0,0,0,-3.3951,-3.3958,-3.4004,-3.4003,-3.4,-3.402,-3.403,-3.408,-3.3996,-3.3997,-3.3988,-3.3984,-3.4022,-3.4026,-3.4039,-3.4119,-3.412,-3.4039,-3.4042,-3.4044,-3.4045,0,0,0,0,0,0,0,-3.3948,-3.3956,-3.4042,-3.4005,-3.4003,-3.3985,-3.3988,-3.4039,-3.4027,-3.3996,-3.3992,-3.3996,-3.4021,-3.4035,-3.4039,-3.412,-3.4039,-3.4043,-3.4045,-3.4047,-3.4275,-3.4278,0,0,0,0,0,0,-3.3949,-3.3954,-3.4041,-3.4043,-3.3967,-3.399,-3.3993,-3.4017,-3.4027,-3.4025,-3.3999,-3.3993,-3.4029,-3.4034,-3.404,-3.4147,-3.4044,-3.4048,-3.405,-3.4272,-3.4276,-3.428,0,0,0,0,0,0,-3.3946,-3.3957,-3.404,-3.3997,-3.4006,-3.3996,-3.4023,-3.402,-3.4034,-3.4029,-3.4026,-3.4016,-3.4027,-3.4034,-3.4098,-3.4147,-3.4049,-3.4053,-3.4267,-3.4273,-3.4278,-3.4362,0,0,0,0,0,0,-3.3943,-3.3957,-3.3992,-3.3998,-3.4009,-3.4098,-3.4026,-3.4023,-3.4042,-3.4034,-3.4044,-3.4042,-3.4025,-3.4092,-3.4103,-3.4151,-3.4057,-3.4263,-3.427,-3.4276,-3.4355,-3.4369,-3.4382,0,0,0,0,0,-3.3939,-3.4014,-3.3994,-3.4005,-3.4053,-3.4101,-3.4107,-3.4086,-3.4046,-3.4081,-3.4077,-3.4042,-3.414,-3.4099,-3.411,-3.4161,-3.426,-3.4268,-3.4276,-3.4349,-3.4367,-3.4382,0,0,0,0,0,0,-3.4014,-3.4015,-3.3992,-3.4072,-3.4087,-3.409,-3.4133,-3.4105,-3.4132,-3.4124,-3.4095,-3.4098,-3.4168,-3.4171,-3.4125,-3.4249,-3.4193,-3.4204,-3.4245,-3.4262,-3.4275,-3.4273,-3.406,0,0,0,0,0,-3.404,-3.408,-3.4078,-3.4148,-3.4157,-3.4144,-3.4164,-3.4146,-3.4161,-3.4167,-3.4167,-3.4182,-3.4216,-3.4239,-3.427,-3.4355,-3.4355,-3.4395,-3.4408,-3.442,-3.4429,-3.4473,-3.449,-3.4305,-3.4305,-3.4305,0,0,-3.4093,-3.4099,-3.4126,-3.4164,-3.4173,-3.4214,-3.415,-3.4196,-3.4226,-3.4173,-3.4234,-3.4235,-3.425,-3.4324,-3.4357,-3.4329,-3.448,-3.443,-3.4439,-3.4442,-3.4483,-3.45,-3.4516,-3.4311,-3.431,-3.4309,0,0,-3.4212,-3.4221,-3.428,-3.4291,-3.4306,-3.4296,-3.4311,-3.4317,-3.4316,-3.4377,-3.4338,-3.4372,-3.4432,-3.4443,-3.4457,-3.4579,-3.4547,-3.459,-3.4661,-3.4704,-3.4718,-3.4731,-3.4774,-3.479,-3.4599,-3.4599,-3.4599,0,-3.4277,-3.4338,-3.4314,-3.4363,-3.438,-3.4334,-3.4393,-3.4405,-3.4429,-3.4442,-3.441,-3.4482,-3.4489,-3.4565,-3.4595,-3.4608,-3.4622,-3.4588,-3.4718,-3.4731,-3.4742,-3.4783,-3.4799,-3.4604,-3.4604,-3.4603,-3.4603,0,-3.4416,-3.4459,-3.4505,-3.453,-3.4552,-3.4606,-3.4589,-3.4614,-3.4594,-3.4588,-3.4649,-3.4656,-3.4687,-3.4703,-3.4684,-3.4777,-3.4758,-3.4723,-3.4666,-3.4766,-3.4803,-3.4818,-3.4611,-3.4609,-3.4608,-3.4607,0,0,-3.4584,-3.4594,-3.4611,-3.4621,-3.4634,-3.4666,-3.4717,-3.4748,-3.477,-3.4788,-3.483,-3.488,-3.4847,-3.4863,-3.4844,-3.4882,-3.4978,-3.4842,-3.4842,-3.4866,-3.5079,-3.5105,-3.5124,-3.4957,-3.4959,-3.4962,-3.5077,0,-3.4701,-3.479,-3.4769,-3.4856,-3.4894,-3.4851,-3.4895,-3.4907,-3.4903,-3.4934,-3.4928,-3.4965,-3.4918,-3.4927,-3.4963,-3.4959,-3.502,-3.495,-3.4995,-3.4997,-3.4992,-3.5144,-3.5172,-3.5281,-3.5092,-3.5094,-3.5096,0,-3.485,-3.4874,-3.4965,-3.497,-3.4986,-3.5026,-3.5051,-3.5082,-3.5095,-3.5088,-3.5106,-3.5079,-3.5129,-3.5072,-3.5139,-3.5092,-3.5109,-3.5109,-3.5113,-3.5116,-3.5053,-3.5151,-3.5315,-3.5332,-3.5119,-3.5117,-3.5116,0,-3.4962,-3.5017,-3.5078,-3.5088,-3.5097,-3.5126,-3.513,-3.514,-3.5159,-3.5181,-3.5193,-3.5221,-3.5236,-3.5257,-3.5239,-3.5199,-3.5309,-3.525,-3.5305,-3.5306,-3.533,-3.5329,-3.55,-3.5342,-3.5341,-3.5341,-3.5341,0,-3.5095,-3.5153,-3.5129,-3.5167,-3.5229,-3.5204,-3.5266,-3.5266,-3.5274,-3.531,-3.5274,-3.5309,-3.5282,-3.5315,-3.53,-3.5358,-3.5365,-3.5361,-3.5357,-3.5365,-3.5365,-3.5375,-3.5367,-3.5345,-3.5344,-3.5344,-3.5343,0,-3.5232,-3.5218,-3.5282,-3.5284,-3.5286,-3.5332,-3.5333,-3.5368,-3.536,-3.5406,-3.5416,-3.5403,-3.5439,-3.5423,-3.5461,-3.5451,-3.5525,-3.5511,-3.5521,-3.5517,-3.5573,-3.5568,-3.5756,-3.5779,-3.5606,-3.5608,-3.5609,0,-3.5317,-3.536,-3.5367,-3.5389,-3.5396,-3.5432,-3.5451,-3.5427,-3.5449,-3.5466,-3.5498,-3.5531,-3.5556,-3.5615,-3.5609,-3.5637,-3.5623,-3.5687,-3.5627,-3.5633,-3.5624,-3.5621,-3.5625,-3.5699,-3.5701,-3.5703,-3.5704,0,-3.5471,-3.5462,-3.5491,-3.5518,-3.5542,-3.5562,-3.5579,-3.5599,-3.5576,-3.5602,-3.5638,-3.5657,-3.5695,-3.5728,-3.5753,-3.5757,-3.5727,-3.5723,-3.5737,-3.5745,-3.575,-3.5748,-3.5554,-3.5719,-3.5717,-3.5716,-3.5716,-3.5715,-3.5584,-3.562,-3.563,-3.5664,-3.5674,-3.569,-3.5723,-3.5719,-3.5749,-3.5778,-3.5762,-3.5804,-3.5814,-3.5844,-3.5852,-3.5884,-3.5859,-3.5879,-3.5885,-3.589,-3.5897,-3.5745,-3.5889,-3.5888,-3.5888,-3.5887,-3.5887,0,-3.5735,-3.574,-3.5771,-3.5795,-3.5822,-3.5791,-3.5808,-3.5832,-3.5869,-3.5881,-3.5907,-3.5948,-3.5979,-3.5975,-3.6004,-3.603,-3.6017,-3.6038,-3.6036,-3.6038,-3.5918,-3.5903,-3.6049,-3.6048,-3.6048,-3.6048,-3.6048,-3.6048,-3.5817,-3.5876,-3.5868,-3.5931,-3.5934,-3.5976,-3.5988,-3.6002,-3.6012,-3.6059,-3.6085,-3.6082,-3.6088,-3.6116,-3.6143,-3.6141,-3.6153,-3.618,-3.6173,-3.6062,-3.6046,-3.6031,-3.6016,-3.6183,-3.6183,-3.6289,-3.629,-3.6291]}]]